Regional Weather Roundup
Issued by NWS Little Rock, AR

Home | Current Version | Previous Version | Text Only | Print | Product List | Glossary Off
Versions: 1 2 3 4 5 6 7 8 9 10 11 12 13 14 15 16 17 18 19 20 21 22 23 24 25 26 27 28 29 30 31 32 33 34 35 36 37 38 39 40 41 42 43 44 45 46 47 48 49 50

987
ASUS44 KLZK 270605
RWRLZK

WEATHER ROUNDUP FOR ARKANSAS
NATIONAL WEATHER SERVICE LITTLE ROCK AR
100 AM CDT THU APR 27 2017

NOTE: "FAIR" INDICATES FEW OR NO CLOUDS BELOW 12,000 FEET WITH NO
SIGNIFICANT WEATHER AND/OR OBSTRUCTIONS TO VISIBILITY.

ARZ001-003-010-029-270700-
NORTHWEST ARKANSAS

CITY           SKY/WX    TMP DP  RH WIND       PRES   REMARKS
FAYETTEVILLE   PTCLDY    43  43 100 CALM      29.74S
6HR MIN TEMP:  43; 6HR MAX TEMP:  45;

FORT SMITH     CLEAR     48  45  89 SW3       29.75S
6HR MIN TEMP:  48; 6HR MAX TEMP:  51;

HARRISON       CLOUDY    44  43  96 W10       29.69S
6HR MIN TEMP:  44; 6HR MAX TEMP:  47; 6HR PCP: TRACE;

BENTONVILLE    CLOUDY    45  41  87 W3        29.73S
6HR MIN TEMP:  45; 6HR MAX TEMP:  45;

ROGERS         MOCLDY    43  42  97 W6        29.73S
6HR MIN TEMP:  43; 6HR MAX TEMP:  45; 6HR PCP: TRACE;

SILOAM SPGS    PTCLDY    43  39  87 CALM      29.74S
6HR MIN TEMP:  43; 6HR MAX TEMP:  45;

HIGHFILL       MOCLDY    43  42  97 SW3       29.73S
6HR MIN TEMP:  43; 6HR MAX TEMP:  46;

$$

ARZ004-005-016-270700-
NORTH CENTRAL ARKANSAS

CITY           SKY/WX    TMP DP  RH WIND       PRES   REMARKS
BATESVILLE     CLOUDY   N/A N/A N/A W8        29.66S
                                      6HR PCP:  0.28;

FLIPPIN        CLOUDY   N/A N/A N/A W8        29.66S
MTN HOME       CLOUDY    46  42  86 N8        29.66S
6HR MIN TEMP:  46; 6HR MAX TEMP:  50; 6HR PCP:  0.01;

$$

ARZ040-041-270700-
WEST CENTRAL ARKANSAS

CITY           SKY/WX    TMP DP  RH WIND       PRES   REMARKS
MENA           NOT AVBL
MOUNT IDA      CLEAR     47  45  93 CALM      29.71S
6HR MIN TEMP:  47; 6HR MAX TEMP:  54;

$$

ARZ009-017-025-026-028-270700-
NORTHEAST ARKANSAS

CITY           SKY/WX    TMP DP  RH WIND       PRES   REMARKS
JONESBORO      CLOUDY    52  50  93 NW12G23   29.63R
6HR MIN TEMP:  52; 6HR MAX TEMP:  61;

NEWPORT        CLOUDY    51  46  83 NW16G23   29.67R
6HR MIN TEMP:  51; 6HR MAX TEMP:  61;

WALNUT RIDGE   CLOUDY    52  45  76 NW14      29.64R
6HR MIN TEMP:  52; 6HR MAX TEMP:  61; 6HR PCP:  0.59;

BLYTHEVILLE    CLOUDY    57  57 100 W16G22    29.59R
6HR MIN TEMP:  56; 6HR MAX TEMP:  62; 6HR PCP:  0.72;

$$

ARZ022-023-033-042-044-270700-
CENTRAL ARKANSAS

CITY           SKY/WX    TMP DP  RH WIND       PRES   REMARKS
LITTLE ROCK    CLOUDY    51  48  89 W15       29.72R
6HR MIN TEMP:  51; 6HR MAX TEMP:  61; 6HR PCP:  0.05;

N LITTLE ROCK    N/A     50  47  90 W6        29.72R
6HR MIN TEMP:  50; 6HR MAX TEMP:  60;

JACKSONVILLE   CLOUDY    52  49  89 W12       29.70R
6HR MIN TEMP:  52; 6HR MAX TEMP:  62; 6HR PCP:  0.09;

CONWAY           N/A     52  48  87 W12       29.70S
SEARCY         CLOUDY    51  50  96 VRB3      29.70R
6HR MIN TEMP:  51; 6HR MAX TEMP:  61; 6HR PCP:  0.22;

HOT SPRINGS    CLEAR     50  46  86 W7        29.74R
6HR MIN TEMP:  50; 6HR MAX TEMP:  58;

RUSSELLVILLE   CLEAR     50  44  80 W9        29.72R
6HR MIN TEMP:  50; 6HR MAX TEMP:  54; 6HR PCP: TRACE;

CLINTON          N/A     52  46  82 W7        29.70R
$$

ARZ036-270700-
EAST ARKANSAS

CITY           SKY/WX    TMP DP  RH WIND       PRES   REMARKS
WEST MEMPHIS   CLOUDY    57  57 100 NW8G21    29.63R
6HR MIN TEMP:  57; 6HR MAX TEMP:  64; 6HR PCP:  1.31;

$$

ARZ050-053-066-070-073-270700-
SOUTHWEST ARKANSAS

CITY           SKY/WX    TMP DP  RH WIND       PRES   REMARKS
ARKADELPHIA    FAIR      52  49  89 CALM      29.75S
6HR MIN TEMP:  52; 6HR MAX TEMP:  61;

CAMDEN         CLOUDY    54  46  76 NW5       29.75S
TEXARKANA      CLEAR     51  47  86 W7        29.78R
6HR MIN TEMP:  51; 6HR MAX TEMP:  56; 6HR PCP: TRACE;

EL DORADO      CLOUDY    53  49  86 NW10      29.76S
DE QUEEN       CLEAR     48  47  96 W5        29.75R
6HR MIN TEMP:  48; 6HR MAX TEMP:  54;

$$

ARZ056-057-069-270700-
SOUTHEAST ARKANSAS

CITY           SKY/WX    TMP DP  RH WIND       PRES   REMARKS
PINE BLUFF     CLOUDY    53  50  89 W8        29.73R
6HR MIN TEMP:  53; 6HR MAX TEMP:  61; 6HR PCP:  0.08;

STUTTGART      CLOUDY    54  43  66 W18       29.70R
6HR MIN TEMP:  54; 6HR MAX TEMP:  63; 6HR PCP:  0.20;

MONTICELLO     CLOUDY    55  52  89 W12G23    29.72R
6HR MIN TEMP:  55; 6HR MAX TEMP:  64; 6HR PCP:  0.05;


$$






USA.gov is the U.S. government's official web portal to all federal, state and local government web resources and services.